Kailua Kona, HI

2:44 PM HST on February 07, 2016 (GMT -1000)
Kona International At Keahole

Weather History for PHKO - March, 2013

Change the Weather History Date:

Saturday, March 30, 2013

  Actual Average Record
Temperature  
Mean Temperature 76 °F -  
Max Temperature 78 °F 79 °F 88 °F (1986)
Min Temperature 73 °F 68 °F 64 °F (1987)
Cooling Degree Days 10    
Growing Degree Days 26 (Base 50)    
Moisture  
Dew Point 65 °F    
Average Humidity 70    
Maximum Humidity 76    
Minimum Humidity 64    
Precipitation  
Precipitation 0.00 in - - ()
Sea Level Pressure  
Sea Level Pressure 30.00 in    
Wind  
Wind Speed 6 mph (NW)    
Max Wind Speed 13 mph    
Max Gust Speed -    
Visibility 10 miles    
Events Rain    
Averages and records for this station are not official NWS values.
T = Trace of Precipitation, MM = Missing Value Source: NWS Daily Summary

Daily Weather History Graph

Daily Weather History Graph

Search for Another Location

Airport or City:

Trip Planner

Search our weather history database for the weather conditions in past years. The results will help you decide how hot, cold, wet, or windy it might be!

Date:

Astronomy

Mar. 30, 2013 Rise Set
Actual Time 6:19 AM HST 6:37 PM HST
Civil Twilight 5:57 AM HST 7:00 PM HST
Nautical Twilight 5:31 AM HST 7:25 PM HST
Astronomical Twilight 5:05 AM HST 7:51 PM HST
Moon 10:23 PM HST (3/30) 8:54 AM HST (3/30)
Length of Visible Light 13h 02m
Length of Day
12h 18m
Waning Gibbous, 84% of the Moon is Illuminated
Mar 30
Waning Gibbous
Apr 2
Last Quarter
Apr 9
New
Apr 18
First Quarter
Apr 25
Full

Hourly Weather History & Observations

Time (HST) Temp. Dew Point Humidity Pressure Visibility Wind Dir Wind Speed Gust Speed Precip Events Conditions
12:53 AM 75.0 °F 63.0 °F 66% 30.01 in 10.0 mi SE 6.9 mph - N/A   Mostly Cloudy
1:53 AM 73.9 °F 63.0 °F 68% 29.99 in 10.0 mi SE 4.6 mph - N/A   Mostly Cloudy
2:53 AM 73.9 °F 63.0 °F 68% 29.99 in 10.0 mi ESE 4.6 mph - N/A   Partly Cloudy
3:53 AM 73.0 °F 63.0 °F 71% 29.97 in 10.0 mi ESE 3.5 mph - N/A   Scattered Clouds
4:53 AM 73.0 °F 63.0 °F 71% 29.96 in 10.0 mi Calm Calm - N/A   Scattered Clouds
5:53 AM 73.9 °F 63.0 °F 68% 29.99 in 10.0 mi Calm Calm - N/A   Overcast
6:53 AM 73.9 °F 63.0 °F 68% 30.01 in 10.0 mi ESE 3.5 mph - N/A   Mostly Cloudy
7:53 AM 75.9 °F 63.0 °F 64% 30.03 in 10.0 mi SSW 5.8 mph - N/A   Partly Cloudy
8:53 AM 77.0 °F 66.0 °F 69% 30.05 in 10.0 mi WSW 6.9 mph - N/A   Mostly Cloudy
9:36 AM 77.0 °F 66.2 °F 69% 30.05 in 10.0 mi West 6.9 mph - N/A   Mostly Cloudy
9:49 AM 77.0 °F 66.2 °F 69% 30.05 in 10.0 mi NNW 12.7 mph - 0.00 in Rain Light Rain
9:53 AM 75.9 °F 68.0 °F 76% 30.06 in 10.0 mi NW 11.5 mph - 0.00 in Rain Light Rain
10:53 AM 75.9 °F 66.0 °F 71% 30.05 in 10.0 mi NW 3.5 mph - 0.00 in   Mostly Cloudy
11:53 AM 77.0 °F 66.9 °F 71% 30.04 in 10.0 mi NW 8.1 mph - 0.00 in Rain Light Rain
12:53 PM 77.0 °F 66.9 °F 71% 30.02 in 10.0 mi WNW 8.1 mph - 0.00 in   Mostly Cloudy
1:53 PM 78.1 °F 66.0 °F 66% 29.99 in 10.0 mi WNW 9.2 mph - N/A   Scattered Clouds
2:53 PM 78.1 °F 66.9 °F 68% 29.97 in 10.0 mi West 8.1 mph - N/A   Partly Cloudy
3:53 PM 77.0 °F 66.0 °F 69% 29.96 in 10.0 mi WNW 10.4 mph - N/A   Clear
4:53 PM 77.0 °F 66.0 °F 69% 29.95 in 10.0 mi WNW 12.7 mph - N/A   Overcast
5:53 PM 75.9 °F 66.0 °F 71% 29.94 in 10.0 mi NW 12.7 mph - N/A   Overcast
6:53 PM 75.0 °F 64.9 °F 71% 29.97 in 10.0 mi NNW 11.5 mph - N/A   Overcast
7:53 PM 75.0 °F 64.9 °F 71% 29.97 in 10.0 mi North 10.4 mph - N/A   Overcast
8:53 PM 75.0 °F 64.9 °F 71% 29.99 in 10.0 mi NNE 10.4 mph - N/A   Mostly Cloudy
9:53 PM 75.0 °F 64.9 °F 71% 29.99 in 10.0 mi North 9.2 mph - N/A   Overcast
10:53 PM 75.0 °F 64.0 °F 69% 29.99 in 10.0 mi North 6.9 mph - N/A   Mostly Cloudy
11:53 PM 73.9 °F 64.0 °F 71% 29.99 in 10.0 mi Calm Calm - N/A   Clear